User: anonymous   Login
Location: Unspecified
(0.0000°N, 0.0000°E)
Time: 04:52:11
(UTC+00:00)
Language:

AMOS 1 - Orbit

View from above orbital plane
View from above orbital plane
View from above satellite
View from above satellite

Ground track
Ground track

The orbit data is extracted from the following two-line orbital elements,

1 23865U 96030B   15104.45096781 -.00000154  00000-0  00000+0 0  9993
2 23865 005.6498 059.8047 0009216 083.1068 219.5726 00.97118474 68934
Epoch (UTC): 14 April 2015 10:49:23
Eccentricity: 0.0009216
inclination: 5.6498°
perigee height: 36654 km
apogee height: 36734 km
right ascension of ascending node: 59.8047°
argument of perigee: 83.1068°
revolutions per day: 0.97118474
mean anomaly at epoch: 219.5726°
orbit number at epoch: 6893

The dashed part of the orbit path shows where the satellite is in the earth's shadow,  

DLR